Tillbaka till svenska Fidonet
English   Information   Debug  
FILM   0/18
FNEWS_PUBLISH   5034
FN_SYSOP   42247
FN_SYSOP_OLD1   71952
FTP_FIDO   0/2
FTSC_PUBLIC   0/13979
FUNNY   0/4886
GENEALOGY.EUR   0/71
GET_INFO   105
GOLDED   274/408
HAM   4844/16786
HOLYSMOKE   0/6791
HOT_SITES   0/1
HTMLEDIT   0/71
HUB203   466
HUB_100   264
HUB_400   39
HUMOR   0/29
IC   0/2851
INTERNET   0/424
INTERUSER   0/3
IP_CONNECT   719
JAMNNTPD   0/233
JAMTLAND   0/47
KATTY_KORNER   0/41
LAN   0/16
LINUX-USER   0/19
LINUXHELP   0/1155
LINUX   0/22427
LINUX_BBS   0/957
mail   18.68
mail_fore_ok   249
MENSA   0/341
MODERATOR   0/102
MONTE   0/992
MOSCOW_OKLAHOMA   0/1245
MUFFIN   0/783
MUSIC   0/321
N203_STAT   938
N203_SYSCHAT   313
NET203   321
NET204   69
NET_DEV   0/10
NORD.ADMIN   0/101
NORD.CHAT   0/2572
NORD.FIDONET   189
NORD.HARDWARE   0/28
NORD.KULTUR   0/114
NORD.PROG   0/32
NORD.SOFTWARE   0/88
NORD.TEKNIK   0/58
NORD   0/453
OCCULT_CHAT   0/93
OS2BBS   0/787
OS2DOSBBS   0/580
OS2HW   0/42
OS2INET   0/37
OS2LAN   0/134
OS2PROG   0/36
OS2REXX   0/113
OS2USER-L   207
OS2   0/4835
OSDEBATE   0/18996
PASCAL   0/490
PERL   0/457
PHP   0/45
POINTS   0/405
POLITICS   13418/29554
POL_INC   1109/14731
PSION   103
R20_ADMIN   1133
R20_AMATORRADIO   0/2
R20_BEST_OF_FIDONET   16
R20_CHAT   0/897
R20_DEPP   0/3
R20_DEV   400
R20_ECHO2   1933
R20_ECHOPRES   0/35
R20_ESTAT   0/719
R20_FIDONETPROG...
...RAM.MYPOINT
  0/2
R20_FIDONETPROGRAM   0/22
R20_FIDONET   0/248
R20_FILEFIND   0/24
R20_FILEFOUND   0/22
R20_HIFI   0/3
R20_INFO2   3827
R20_INTERNET   0/12940
R20_INTRESSE   0/60
R20_INTR_KOM   0/99
R20_KANDIDAT.CHAT   42
R20_KANDIDAT   28
R20_KOM_DEV   112
R20_KONTROLL   0/13360
R20_KORSET   0/18
R20_LOKALTRAFIK   0/24
R20_MODERATOR   0/1852
R20_NC   76
R20_NET200   245
R20_NETWORK.OTH...
...ERNETS
  0/13
R20_OPERATIVSYS...
...TEM.LINUX
  0/44
R20_PROGRAMVAROR   0/1
R20_REC2NEC   534
R20_SFOSM   0/341
R20_SF   0/108
R20_SPRAK.ENGLISH   0/1
R20_SQUISH   107
R20_TEST   2
R20_WORST_OF_FIDONET   20
RAR   0/9
RA_MULTI   106
RA_UTIL   0/162
REGCON.EUR   0/2072
REGCON   0/13
SCIENCE   0/1206
SF   0/239
SHAREWARE_SUPPORT   0/5146
SHAREWRE   0/14
SIMPSONS   0/169
STATS_OLD1   0/2539.065
STATS_OLD2   0/2530
STATS_OLD3   0/2395.095
STATS_OLD4   0/1692.25
SURVIVOR   0/495
SYSOPS_CORNER   0/3
SYSOP   0/84
TAGLINES   0/112
TEAMOS2   0/4530
TECH   0/2617
TEST.444   0/105
TRAPDOOR   0/19
TREK   0/755
TUB   0/290
UFO   0/40
UNIX   0/1316
USA_EURLINK   0/102
USR_MODEMS   0/1
VATICAN   0/2740
VIETNAM_VETS   0/14
VIRUS   0/378
VIRUS_INFO   0/201
VISUAL_BASIC   0/473
WHITEHOUSE   0/5187
WIN2000   0/101
WIN32   0/30
WIN95   0/4291
WIN95_OLD1   0/70272
WINDOWS   0/1517
WWB_SYSOP   0/419
WWB_TECH   0/810
ZCC-PUBLIC   0/1
ZEC   4

 
4DOS   0/134
ABORTION   0/7
ALASKA_CHAT   0/506
ALLFIX_FILE   0/1313
ALLFIX_FILE_OLD1   0/7997
ALT_DOS   0/152
AMATEUR_RADIO   0/1039
AMIGASALE   0/14
AMIGA   0/331
AMIGA_INT   0/1
AMIGA_PROG   0/20
AMIGA_SYSOP   0/26
ANIME   0/15
ARGUS   0/924
ASCII_ART   0/340
ASIAN_LINK   0/651
ASTRONOMY   0/417
AUDIO   0/92
AUTOMOBILE_RACING   0/105
BABYLON5   0/17862
BAG   135
BATPOWER   0/361
BBBS.ENGLISH   0/382
BBSLAW   0/109
BBS_ADS   0/5290
BBS_INTERNET   0/507
BIBLE   0/3563
BINKD   0/1119
BINKLEY   0/215
BLUEWAVE   0/2173
CABLE_MODEMS   0/25
CBM   0/46
CDRECORD   0/66
CDROM   0/20
CLASSIC_COMPUTER   0/378
COMICS   0/15
CONSPRCY   0/899
COOKING   42383
COOKING_OLD1   0/24719
COOKING_OLD2   0/40862
COOKING_OLD3   0/37489
COOKING_OLD4   23439/35496
COOKING_OLD5   9370
C_ECHO   0/189
C_PLUSPLUS   0/31
DIRTY_DOZEN   0/201
DOORGAMES   0/2388
DOS_INTERNET   0/196
duplikat   6102
ECHOLIST   13742/18295
EC_SUPPORT   0/318
ELECTRONICS   0/359
ELEKTRONIK.GER   1534
ENET.LINGUISTIC   0/13
ENET.POLITICS   0/4
ENET.SOFT   0/11701
ENET.SYSOP   34409
ENET.TALKS   0/32
ENGLISH_TUTOR   0/2000
EVOLUTION   0/1335
FDECHO   0/217
FDN_ANNOUNCE   0/7068
FIDONEWS   25225
FIDONEWS_OLD1   0/49742
FIDONEWS_OLD2   0/35949
FIDONEWS_OLD3   0/30874
FIDONEWS_OLD4   0/37224
FIDO_SYSOP   12977
FIDO_UTIL   0/180
FILEFIND   0/209
FILEGATE   0/212
Möte HAM, 16786 texter
 lista första sista föregående nästa
Text 4193, 908 rader
Skriven 2010-12-16 23:01:24 av Amsat List (1:323/120.0)
Ärende: [keps]  orb10350.amsa
=============================
[keps]  orb10350.amsa

Return-Path: <keps-bounces@amsat.org>
X-Rcpt: craig.healy@chowda.com
X-UIDL: 1292557532.63216

SB KEPS @ AMSAT  $ORB10350.O
Orbital Elements  10350.OSCAR

HR AMSAT ORBITAL ELEMENTS FOR OSCAR SATELLITES
FROM WA5QGD FORT WORTH,TX December 16, 2010
Send Subscribe/unsubscribe to KEPS at http://www.amsat.org/mailman/listinfo/kep
BID: ORB10350.O
TO ALL RADIO AMATEURS BT

Satellite: AO-07
Catalog number: 07530
Epoch time:      10349.60211824
Element set:    0954
Inclination:      101.3963 deg
RA of node:       358.3873 deg
Eccentricity:    0.0011791
Arg of perigee:   280.0324 deg
Mean anomaly:     079.9410 deg
Mean motion:   12.53580500 rev/day
Decay rate:       -2.7e-07 rev/day^2
Epoch rev:           65118
Checksum:              280

Satellite: FO-29
Catalog number: 24278
Epoch time:      10349.95200462
Element set:    0466
Inclination:      098.5185 deg
RA of node:       154.0236 deg
Eccentricity:    0.0351022
Arg of perigee:   012.4662 deg
Mean anomaly:     348.4889 deg
Mean motion:   13.52955771 rev/day
Decay rate:       -1.7e-07 rev/day^2
Epoch rev:           70768
Checksum:              323

Satellite: SO-33
Catalog number: 25509
Epoch time:      10350.75081603
Element set:     860
Inclination:      031.4293 deg
RA of node:       196.1007 deg
Eccentricity:    0.0352990
Arg of perigee:   086.2146 deg
Mean anomaly:     277.8757 deg
Mean motion:   14.28347409 rev/day
Decay rate:       1.20e-06 rev/day^2
Epoch rev:           63417
Checksum:              300

Satellite: RS-22
Catalog number: 27939
Epoch time:      10350.67845541
Element set:     816
Inclination:      097.8664 deg
RA of node:       208.1529 deg
Eccentricity:    0.0013091
Arg of perigee:   198.7739 deg
Mean anomaly:     161.2980 deg
Mean motion:   14.63489576 rev/day
Decay rate:       2.08e-06 rev/day^2
Epoch rev:           38564
Checksum:              349

Satellite: VO-52
Catalog number: 28650
Epoch time:      10349.71194890
Element set:    0671
Inclination:      097.6697 deg
RA of node:       035.8252 deg
Eccentricity:    0.0027910
Arg of perigee:   044.3553 deg
Mean anomaly:     315.9891 deg
Mean motion:   14.81874101 rev/day
Decay rate:       6.67e-06 rev/day^2
Epoch rev:           30357
Checksum:              328

Satellite: SO-67
Catalog number: 35870
Epoch time:      10350.80939043
Element set:     384
Inclination:      097.3087 deg
RA of node:       034.8780 deg
Eccentricity:    0.0003275
Arg of perigee:   148.8342 deg
Mean anomaly:     340.7440 deg
Mean motion:   15.21239782 rev/day
Decay rate:       8.89e-06 rev/day^2
Epoch rev:            6921
Checksum:              322

Satellite: HO-68
Catalog number: 36122
Epoch time:      10350.81956510
Element set:     939
Inclination:      100.4465 deg
RA of node:       049.1960 deg
Eccentricity:    0.0007141
Arg of perigee:   281.1629 deg
Mean anomaly:     078.8687 deg
Mean motion:   13.16283227 rev/day
Decay rate:       -4.5e-07 rev/day^2
Epoch rev:            4824
Checksum:              302

/EX
SB KEPS @ AMSAT  $ORB10350.D
Orbital Elements  10350.MICROS

HR AMSAT ORBITAL ELEMENTS FOR THE MICROSATS
FROM WA5QGD FORT WORTH,TX December 16, 2010
Send Subscribe/unsubscribe to KEPS at http://www.amsat.org/mailman/listinfo/kep
BID: ORB10350.D
TO ALL RADIO AMATEURS BT

Satellite: UO-11
Catalog number: 14781
Epoch time:      10349.70666410
Element set:    0421
Inclination:      098.0331 deg
RA of node:       041.7474 deg
Eccentricity:    0.0009364
Arg of perigee:   019.2125 deg
Mean anomaly:     340.9487 deg
Mean motion:   14.79868438 rev/day
Decay rate:       -5.6e-07 rev/day^2
Epoch rev:           43865
Checksum:              312

Satellite: AO-16
Catalog number: 20439
Epoch time:      10350.85195002
Element set:      69
Inclination:      098.3602 deg
RA of node:       301.8120 deg
Eccentricity:    0.0011059
Arg of perigee:   349.5056 deg
Mean anomaly:     010.5890 deg
Mean motion:   14.31887717 rev/day
Decay rate:        3.3e-07 rev/day^2
Epoch rev:            9152
Checksum:              274

Satellite: LO-19
Catalog number: 20442
Epoch time:      10349.77248456
Element set:    0980
Inclination:      098.3220 deg
RA of node:       305.8448 deg
Eccentricity:    0.0011711
Arg of perigee:   346.5721 deg
Mean anomaly:     013.5154 deg
Mean motion:   14.32116038 rev/day
Decay rate:        2.0e-08 rev/day^2
Epoch rev:           09154
Checksum:              275

Satellite: AO-27
Catalog number: 22825
Epoch time:      10350.86341165
Element set:     701
Inclination:      098.5093 deg
RA of node:       294.2926 deg
Eccentricity:    0.0009296
Arg of perigee:   090.8213 deg
Mean anomaly:     269.4036 deg
Mean motion:   14.29319869 rev/day
Decay rate:        3.6e-07 rev/day^2
Epoch rev:           89814
Checksum:              328

Satellite: IO-26
Catalog number: 22826
Epoch time:      10349.77617437
Element set:    0439
Inclination:      098.5044 deg
RA of node:       293.7670 deg
Eccentricity:    0.0009885
Arg of perigee:   090.0762 deg
Mean anomaly:     270.1546 deg
Mean motion:   14.29578352 rev/day
Decay rate:        3.8e-07 rev/day^2
Epoch rev:           89810
Checksum:              340

Satellite: GO-32
Catalog number: 25397
Epoch time:      10350.82388797
Element set:     358
Inclination:      098.3186 deg
RA of node:       348.2505 deg
Eccentricity:    0.0002313
Arg of perigee:   090.7585 deg
Mean anomaly:     269.3856 deg
Mean motion:   14.23192267 rev/day
Decay rate:        9.0e-07 rev/day^2
Epoch rev:           64602
Checksum:              327

